Hourly Data Report for April 04, 2021

TORONTO CITY
ONTARIO
Current Station Operator: ECCC - MSC

43°40'00.000" N
79°24'00.000" W
112.50 m
6158355
71508
XTO

Download Data

Hourly Data (April 2021)
Hourly Data Report for April 4, 2021
TIME
LST
Temp Definition
°C
Dew Point Definition
°C
Rel Hum Definition
%
Precip. Amount Definition
mm

Wind Dir Definition
10's deg

Wind Spd Definition
km/h
Visibility Definition
km
Stn Press Definition
kPa
Hmdx Definition


Wind Chill Definition


Weather Definition


00:00 3.8 0.3 78 0.0       100.55     LegendNANA
01:00 3.5 0.9 83 0.0       100.52     LegendNANA
02:00 3.0 0.8 86 0.0       100.51     LegendNANA
03:00 2.8 0.9 87 0.0       100.53     LegendNANA
04:00 2.4 0.6 88 0.0       100.56     LegendNANA
05:00 2.5 0.7 88 0.0       100.62     LegendNANA
06:00 2.2 0.3 87 0.0       100.68     LegendNANA
07:00 2.5 0.6 87 0.0       100.73     LegendNANA
08:00 5.5 0.6 71 0.0       100.76     LegendNANA
09:00 7.9 -1.9 50 0.0       100.79     LegendNANA
10:00 10.6 -3.6 37 0.0       100.82     LegendNANA
11:00 11.5 -3.6 34 0.0       100.85     LegendNANA
12:00 11.0 0.0 47 0.0       100.84     LegendNANA
13:00 11.4 0.1 46 0.0       100.84     LegendNANA
14:00 11.5 0.0 45 0.0       100.77     LegendNANA
15:00 10.7 -1.4 43 0.0       100.73     LegendNANA
16:00 10.5 -1.7 42 0.0       100.72     LegendNANA
17:00 11.1 -2.6 38 0.0       100.72     LegendNANA
18:00 11.6 -2.0 39 0.0       100.69     LegendNANA
19:00 10.4 -2.4 40 0.0       100.70     LegendNANA
20:00 9.8 -2.1 43 0.0       100.75     LegendNANA
21:00 11.0 -2.7 38 0.0       100.77     LegendNANA
22:00 9.1 -2.9 43 0.0       100.76     LegendNANA
23:00 9.1 -3.1 42 0.0       100.76     LegendNANA

Notes on Data Quality.

Legend

  • E = Estimated
  • M = Missing
  • NA = Not Available*
  • [empty] = Indicates an unobserved value
Date modified: